Volver al catálogo

OPS 4682 DEB

ActivoPO
NORAD 38398·DEBRIS·🇺🇸 United States

Lanzado Apr 3, 1965 desde Vandenberg Space Force Base

Loading…

Próximos Pases (próximas 24 horas)

TLE

ActualizadoSource: Space-Track

Época: Sep 14, 2026, 14:15 UTC

1 38398U 65027DB  26257.59390080 -.00000143  00000-0 -51987-3 0  9990
2 38398  90.2715  20.0266 0017856 227.9277 132.0325 12.97177613674845

Sigue OPS 4682 DEB en tiempo real con AllMySat

Download on the App Store